FW1856 Weather Reports


time (UTC)temp
C
wind
direction
speed
KPH
gust
KPH
rain 1hr
cm
rain 24hr
cm
rain mn
cm
humidity
%
barometer
mb
20260506023122 16 116 6.4 20.9 0.00 0.00 0.00 71 1013.8
20260506022122 16 97 4.8 22.5 0.00 0.00 0.00 71 1013.8
20260506021124 16 107 9.7 29.0 0.00 0.00 0.00 71 1013.7
20260506020143 16 128 6.4 20.9 0.00 0.00 0.00 71 1013.8
20260506015122 17 107 9.7 25.7 0.00 0.00 0.00 70 1013.8
20260506014122 17 142 6.4 22.5 0.00 0.00 0.00 70 1013.7
20260506013143 17 127 4.8 29.0 0.00 0.00 0.00 69 1013.8
20260506012123 17 144 4.8 17.7 0.00 0.00 0.00 69 1013.9
20260506011122 17 121 6.4 22.5 0.00 0.00 0.00 69 1013.8
20260506010122 17 133 6.4 29.0 0.00 0.00 0.00 68 1013.9
20260506005122 17 127 6.4 25.7 0.00 0.00 0.00 67 1014.0
20260506004122 18 144 4.8 17.7 0.00 0.00 0.00 67 1014.0
20260506003122 18 154 6.4 22.5 0.00 0.00 0.00 67 1013.9
20260506002122 18 137 6.4 22.5 0.00 0.00 0.00 67 1013.9
20260506001122 18 141 6.4 25.7 0.00 0.00 0.00 65 1014.1
20260506000122 18 173 6.4 29.0 0.00 0.00 0.00 66 1014.0
20260505235122 19 115 6.4 22.5 0.00 0.00 0.00 64 1014.2
20260505234122 18 105 8.0 30.6 0.00 0.00 0.00 64 1014.2
20260505233123 18 113 6.4 25.7 0.00 0.00 0.00 65 1014.2
20260505232143 19 117 8.0 25.7 0.00 0.00 0.00 63 1014.4
20260505231123 19 135 6.4 20.9 0.00 0.00 0.00 64 1014.5
20260505230122 19 120 4.8 20.9 0.00 0.00 0.00 63 1014.6
20260505225122 18 144 6.4 22.5 0.00 0.00 0.00 65 1014.6
20260505224122 18 179 8.0 22.5 0.00 0.00 0.00 64 1014.7
20260505223143 19 97 9.7 25.7 0.00 0.00 0.00 63 1014.8
20260505222122 18 156 6.4 25.7 0.00 0.00 0.00 64 1014.8
20260505221143 19 151 6.4 22.5 0.00 0.00 0.00 64 1014.9
20260505220122 19 116 8.0 22.5 0.00 0.00 0.00 65 1015.0
20260505215122 20 107 4.8 22.5 0.00 0.00 0.00 64 1014.9
20260505214122 18 127 4.8 17.7 0.00 0.00 0.00 64 1015.0
20260505213123 18 149 6.4 20.9 0.00 0.00 0.00 64 1015.1
20260505212122 19 124 4.8 20.9 0.00 0.00 0.00 62 1015.2
20260505211122 18 132 6.4 22.5 0.00 0.00 0.00 65 1015.1
20260505210122 18 104 6.4 22.5 0.00 0.00 0.00 64 1015.2
20260505205122 18 119 6.4 20.9 0.00 0.00 0.00 65 1015.3
20260505204122 18 137 4.8 22.5 0.00 0.00 0.00 66 1015.4
20260505203123 17 118 9.7 29.0 0.00 0.00 0.00 66 1015.4
20260505202122 18 101 6.4 22.5 0.00 0.00 0.00 66 1015.4
20260505201122 18 139 6.4 20.9 0.00 0.00 0.00 68 1015.5
20260505200122 17 168 6.4 20.9 0.00 0.00 0.00 67 1015.5
20260505195122 17 149 8.0 29.0 0.00 0.00 0.00 67 1015.6
20260505194123 17 138 4.8 17.7 0.00 0.00 0.00 67 1015.6
20260505193144 17 175 6.4 22.5 0.00 0.00 0.00 66 1015.4
20260505192122 17 166 6.4 17.7 0.00 0.00 0.00 68 1015.4
20260505191123 17 108 8.0 22.5 0.00 0.00 0.00 70 1015.6
20260505190123 16 122 8.0 22.5 0.00 0.00 0.00 71 1015.6
20260505185122 17 113 6.4 22.5 0.00 0.00 0.00 72 1015.7
20260505184122 16 130 8.0 29.0 0.00 0.00 0.00 73 1015.7
20260505183124 16 169 6.4 22.5 0.00 0.00 0.00 73 1015.7
20260505182124 16 151 4.8 17.7 0.00 0.00 0.00 75 1015.6
20260505181123 15 165 6.4 25.7 0.00 0.00 0.00 76 1015.6
20260505180123 15 109 9.7 29.0 0.00 0.00 0.00 77 1015.7
20260505175123 15 165 6.4 30.6 0.00 0.00 0.00 78 1015.6
20260505174122 15 116 8.0 30.6 0.00 0.00 0.00 78 1015.7
20260505173143 15 132 6.4 29.0 0.00 0.00 0.00 79 1015.6
20260505172123 15 144 8.0 25.7 0.00 0.00 0.00 79 1015.6
20260505171122 15 146 8.0 29.0 0.00 0.00 0.00 81 1015.6
20260505170123 14 152 8.0 22.5 0.00 0.00 0.00 81 1015.6
20260505165122 13 152 8.0 29.0 0.00 0.00 0.00 81 1015.7
20260505164122 13 120 8.0 25.7 0.00 0.00 0.00 80 1015.5
20260505163122 14 108 8.0 29.0 0.00 0.00 0.00 80 1015.4
20260505162122 14 130 6.4 22.5 0.00 0.00 0.00 79 1015.5
20260505161122 14 116 6.4 22.5 0.00 0.00 0.00 80 1015.4
20260505160122 14 119 8.0 22.5 0.00 0.00 0.00 79 1015.3
20260505153122 14 105 9.7 25.7 0.00 0.00 0.00 78 1015.0
20260505152122 14 134 6.4 25.7 0.00 0.00 0.00 78 1015.0
20260505151123 14 104 11.3 29.0 0.00 0.00 0.00 79 1014.9
20260505150122 14 101 9.7 33.8 0.00 0.00 0.00 78 1014.8
20260505140122 14 106 8.0 25.7 0.00 0.00 0.00 76 1014.0
20260505130122 13 91 6.4 22.5 0.00 0.00 0.00 76 1013.4
20260505124143 13 86 4.8 22.5 0.00 0.00 0.00 76 1013.1
20260505123143 13 83 4.8 16.1 0.00 0.00 0.00 75 1013.0
20260505122122 13 92 6.4 17.7 0.00 0.00 0.00 75 1012.9
20260505121122 13 94 6.4 20.9 0.00 0.00 0.00 75 1012.9
20260505120122 13 87 4.8 16.1 0.00 0.00 0.00 75 1012.8
20260505115122 13 86 3.2 8.0 0.00 0.00 0.00 75 1012.7
20260505114144 13 84 4.8 16.1 0.00 0.00 0.00 74 1012.7
20260505113122 13 79 3.2 9.7 0.00 0.00 0.00 73 1012.7
20260505112123 14 90 3.2 9.7 0.00 0.00 0.00 73 1012.5
20260505111122 14 80 3.2 9.7 0.00 0.00 0.00 73 1012.4
20260505110122 14 84 3.2 9.7 0.00 0.00 0.00 72 1012.2
20260505102122 15 107 3.2 9.7 0.00 0.00 0.00 71 1011.7
20260505101122 15 100 3.2 9.7 0.00 0.00 0.00 71 1011.6
20260505100122 15 106 4.8 17.7 0.00 0.00 0.00 72 1011.4
20260505095122 15 97 8.0 20.9 0.00 0.00 0.00 74 1011.3
20260505094123 15 104 6.4 17.7 0.00 0.00 0.00 76 1011.2
20260505093122 15 98 8.0 22.5 0.00 0.00 0.00 78 1011.0
20260505092122 15 103 3.2 16.1 0.00 0.00 0.00 79 1011.0
20260505091122 15 121 3.2 9.7 0.00 0.00 0.00 78 1010.9
20260505090122 15 112 3.2 16.1 0.00 0.00 0.00 78 1010.8
20260505085122 15 97 3.2 9.7 0.00 0.00 0.00 77 1010.7
20260505084123 15 109 0.0 4.8 0.00 0.00 0.00 76 1010.6
20260505083122 16 113 1.6 8.0 0.00 0.00 0.00 76 1010.5
20260505082123 16 132 0.0 3.2 0.00 0.00 0.00 76 1010.4
20260505081122 16 133 0.0 4.8 0.00 0.00 0.00 76 1010.4
20260505080143 16 200 1.6 4.8 0.00 0.00 0.00 75 1010.4
20260505075122 16 173 1.6 8.0 0.00 0.00 0.00 73 1010.2
20260505074122 16 139 1.6 4.8 0.00 0.00 0.00 72 1010.3
20260505073123 16 121 0.0 4.8 0.00 0.00 0.00 70 1010.1
20260505072123 16 120 0.0 0.0 0.00 0.00 0.00 70 1010.0
20260505071144 17 123 0.0 0.0 0.00 0.00 0.00 69 1009.8
20260505065143 17 120 0.0 0.0 0.00 0.00 0.00 66 1009.6
20260505064122 17 108 0.0 0.0 0.00 0.00 0.00 66 1009.6
20260505063122 17 112 0.0 0.0 0.00 0.00 0.00 66 1009.3
20260505062144 18 110 0.0 0.0 0.00 0.00 0.00 65 1009.2
20260505061122 18 103 0.0 4.8 0.00 0.00 0.00 64 1009.1
20260505060122 18 103 0.0 4.8 0.00 0.00 0.00 63 1009.1
20260505055122 19 100 1.6 8.0 0.00 0.00 0.00 60 1009.1
20260505054122 20 103 0.0 4.8 0.00 0.00 0.00 57 1009.1
20260505053122 20 76 3.2 8.0 0.00 0.00 0.00 55 1009.0
20260505052123 20 88 3.2 8.0 0.00 0.00 0.00 56 1009.0
20260505051123 19 101 3.2 9.7 0.00 0.00 0.00 60 1008.9
20260505050122 19 287 0.0 0.0 0.00 0.00 0.00 63 1008.8
20260505041122 20 287 0.0 0.0 0.00 0.00 0.00 58 1008.4
20260505040124 21 285 0.0 0.0 0.00 0.00 0.00 56 1008.3
20260505035122 21 283 0.0 0.0 0.00 0.00 0.00 55 1008.3
20260505034144 21 359 0.0 0.0 0.00 0.00 0.00 53 1008.2
20260505033122 21 359 0.0 0.0 0.00 0.00 0.00 52 1008.1
20260505032122 22 287 0.0 0.0 0.00 0.00 0.00 51 1008.0
20260505031122 22 287 0.0 0.0 0.00 0.00 0.00 48 1008.0
20260505030122 23 284 0.0 0.0 0.00 0.00 0.00 48 1008.0
20260505025122 23 284 0.0 0.0 0.00 0.00 0.00 45 1007.9
20260505024122 23 288 0.0 0.0 0.00 0.00 0.00 45 1007.9